| time (UTC) | temp F | wind direction | speed MPH | gust MPH | rain 1hr in | rain 24hr in | rain mn in | humidity % | barometer mb |
| 20260506134536 | 36 | 240 | 0.0 | 1.0 | 0.00 | 0.00 | 0.00 | 95 | 1022.4 |
| 20260506133032 | 36 | 9 | 0.0 | 0.0 | 0.00 | 0.00 | 0.00 | 95 | 1022.2 |
| 20260506131530 | 35 | 166 | 0.0 | 1.0 | 0.00 | 0.00 | 0.00 | 96 | 1022.0 |
| 20260506130022 | 35 | 258 | 0.0 | 2.0 | 0.00 | 0.00 | 0.00 | 96 | 1021.8 |
| 20260506124517 | 35 | 47 | 0.0 | 1.0 | 0.00 | 0.00 | 0.00 | 96 | 1021.5 |
| 20260506123014 | 35 | 317 | 0.0 | 2.0 | 0.00 | 0.00 | 0.00 | 96 | 1021.4 |
| 20260506121510 | 35 | 195 | 0.0 | 2.0 | 0.00 | 0.00 | 0.00 | 96 | 1021.2 |
| 20260506120004 | 35 | 155 | 0.0 | 0.0 | 0.00 | 0.00 | 0.00 | 96 | 1021.0 |
| 20260506114601 | 34 | 110 | 0.0 | 0.0 | 0.00 | 0.00 | 0.00 | 96 | 1021.0 |
| 20260506113056 | 34 | 160 | 0.0 | 0.0 | 0.00 | 0.00 | 0.00 | 96 | 1020.9 |
| 20260506111551 | 34 | 342 | 0.0 | 0.0 | 0.00 | 0.00 | 0.00 | 95 | 1020.8 |
| 20260506110047 | 34 | 90 | 0.0 | 0.0 | 0.00 | 0.00 | 0.00 | 95 | 1020.7 |
| 20260506104543 | 34 | 150 | 0.0 | 0.0 | 0.00 | 0.00 | 0.00 | 95 | 1020.7 |
| 20260506103047 | 33 | 263 | 0.0 | 0.0 | 0.00 | 0.00 | 0.00 | 95 | 1020.7 |
| 20260506101532 | 33 | 118 | 0.0 | 0.0 | 0.00 | 0.00 | 0.00 | 95 | 1020.4 |
| 20260506100029 | 34 | 121 | 0.0 | 0.0 | 0.00 | 0.00 | 0.00 | 95 | 1020.2 |
| 20260506094525 | 34 | 53 | 0.0 | 0.0 | 0.00 | 0.00 | 0.00 | 95 | 1020.2 |
| 20260506093019 | 34 | 257 | 0.0 | 0.0 | 0.00 | 0.00 | 0.00 | 95 | 1020.1 |
| 20260506091517 | 34 | 248 | 0.0 | 0.0 | 0.00 | 0.00 | 0.00 | 95 | 1020.1 |
| 20260506090017 | 34 | 124 | 0.0 | 0.0 | 0.00 | 0.00 | 0.00 | 95 | 1020.2 |
| 20260506084508 | 35 | 135 | 0.0 | 0.0 | 0.00 | 0.00 | 0.00 | 95 | 1020.1 |
| 20260506083002 | 35 | 25 | 0.0 | 0.0 | 0.00 | 0.00 | 0.00 | 95 | 1020.1 |
| 20260506081607 | 35 | 3 | 0.0 | 0.0 | 0.00 | 0.00 | 0.00 | 95 | 1020.1 |
| 20260506073052 | 37 | 78 | 0.0 | 0.0 | 0.00 | 0.00 | 0.00 | 95 | 1019.9 |
| 20260506071539 | 37 | 58 | 0.0 | 1.0 | 0.00 | 0.00 | 0.00 | 95 | 1019.9 |
| 20260506061541 | 36 | 165 | 0.0 | 2.0 | 0.00 | 0.00 | 0.00 | 95 | 1019.0 |
| 20260506050120 | 38 | 174 | 0.0 | 0.0 | 0.00 | 0.00 | 0.00 | 94 | 1018.5 |
| 20260506044554 | 38 | 132 | 0.0 | 0.0 | 0.00 | 0.00 | 0.00 | 94 | 1018.5 |
| 20260506043052 | 38 | 150 | 0.0 | 0.0 | 0.00 | 0.00 | 0.00 | 94 | 1018.4 |
| 20260506041543 | 38 | 256 | 0.0 | 0.0 | 0.00 | 0.00 | 0.00 | 94 | 1018.2 |
| 20260506040042 | 39 | 204 | 0.0 | 0.0 | 0.00 | 0.00 | 0.00 | 94 | 1018.1 |
| 20260506034538 | 39 | 187 | 0.0 | 0.0 | 0.00 | 0.00 | 0.00 | 93 | 1018.0 |
| 20260506033033 | 39 | 277 | 0.0 | 0.0 | 0.00 | 0.00 | 0.00 | 93 | 1017.7 |
| 20260506031533 | 40 | 114 | 0.0 | 0.0 | 0.00 | 0.00 | 0.00 | 93 | 1017.5 |
| 20260506030027 | 41 | 114 | 0.0 | 0.0 | 0.00 | 0.00 | 0.00 | 92 | 1017.4 |
| 20260506024538 | 41 | 259 | 0.0 | 0.0 | 0.00 | 0.00 | 0.00 | 92 | 1017.3 |
| 20260506023022 | 42 | 156 | 0.0 | 0.0 | 0.00 | 0.00 | 0.00 | 91 | 1017.2 |
| 20260506021521 | 43 | 107 | 0.0 | 0.0 | 0.00 | 0.00 | 0.00 | 90 | 1017.0 |
| 20260506020020 | 45 | 111 | 0.0 | 0.0 | 0.00 | 0.00 | 0.00 | 87 | 1016.8 |
| 20260506014518 | 47 | 160 | 0.0 | 0.0 | 0.00 | 0.00 | 0.00 | 85 | 1016.7 |
| 20260506013014 | 49 | 46 | 0.0 | 1.0 | 0.00 | 0.00 | 0.00 | 79 | 1016.6 |
| 20260506011507 | 51 | 114 | 0.0 | 3.0 | 0.00 | 0.00 | 0.00 | 66 | 1016.4 |
| 20260506010005 | 51 | 184 | 0.0 | 6.0 | 0.00 | 0.00 | 0.00 | 66 | 1016.4 |
| 20260506004558 | 52 | 70 | 0.0 | 4.0 | 0.00 | 0.00 | 0.00 | 67 | 1016.5 |
| 20260506003056 | 52 | 129 | 0.0 | 4.0 | 0.00 | 0.00 | 0.00 | 67 | 1016.5 |
| 20260506001554 | 51 | 69 | 0.0 | 8.0 | 0.00 | 0.00 | 0.00 | 64 | 1016.6 |
| 20260506000053 | 51 | 248 | 0.0 | 4.0 | 0.00 | 0.00 | 0.00 | 67 | 1016.6 |
| 20260505234558 | 51 | 330 | 0.0 | 13.0 | 0.00 | 0.00 | 0.00 | 66 | 1016.5 |
| 20260505233044 | 51 | 269 | 3.0 | 9.0 | 0.00 | 0.00 | 0.00 | 64 | 1016.6 |
| 20260505231555 | 51 | 116 | 1.0 | 4.0 | 0.00 | 0.00 | 0.00 | 65 | 1016.5 |
| 20260505230037 | 50 | 131 | 1.0 | 7.0 | 0.00 | 0.00 | 0.00 | 68 | 1016.7 |
| 20260505224532 | 50 | 211 | 1.0 | 10.0 | 0.00 | 0.00 | 0.00 | 68 | 1016.8 |
| 20260505223033 | 49 | 231 | 0.0 | 6.0 | 0.00 | 0.00 | 0.00 | 69 | 1016.8 |
| 20260505221524 | 50 | 294 | 1.0 | 7.0 | 0.00 | 0.00 | 0.00 | 70 | 1016.9 |
| 20260505220016 | 49 | 280 | 3.0 | 11.0 | 0.00 | 0.00 | 0.00 | 70 | 1017.0 |
| 20260505214518 | 49 | 152 | 1.0 | 8.0 | 0.00 | 0.00 | 0.00 | 71 | 1017.2 |
| 20260505213008 | 48 | 234 | 3.0 | 6.0 | 0.00 | 0.00 | 0.00 | 73 | 1017.2 |
| 20260505211505 | 48 | 354 | 2.0 | 8.0 | 0.00 | 0.00 | 0.00 | 74 | 1017.4 |
| 20260505210059 | 47 | 317 | 3.0 | 11.0 | 0.00 | 0.00 | 0.00 | 74 | 1017.3 |
| 20260505204554 | 47 | 69 | 1.0 | 11.0 | 0.00 | 0.00 | 0.00 | 78 | 1017.4 |
| 20260505203052 | 46 | 68 | 3.0 | 8.0 | 0.00 | 0.00 | 0.00 | 76 | 1017.3 |
| 20260505201544 | 45 | 168 | 2.0 | 8.0 | 0.00 | 0.00 | 0.00 | 79 | 1017.4 |
| 20260505200050 | 45 | 285 | 1.0 | 6.0 | 0.00 | 0.00 | 0.00 | 80 | 1017.3 |
| 20260505194537 | 44 | 265 | 3.0 | 9.0 | 0.00 | 0.00 | 0.00 | 81 | 1017.3 |
| 20260505193035 | 45 | 188 | 3.0 | 9.0 | 0.00 | 0.00 | 0.00 | 81 | 1017.1 |
| 20260505191526 | 45 | 113 | 2.0 | 8.0 | 0.00 | 0.00 | 0.00 | 82 | 1017.0 |
| 20260505190028 | 45 | 158 | 1.0 | 6.0 | 0.00 | 0.00 | 0.00 | 82 | 1016.8 |
| 20260505184520 | 45 | 311 | 0.0 | 2.0 | 0.00 | 0.00 | 0.00 | 84 | 1016.7 |
| 20260505183021 | 43 | 322 | 1.0 | 3.0 | 0.00 | 0.00 | 0.00 | 84 | 1016.6 |
| 20260505181509 | 43 | 229 | 0.0 | 3.0 | 0.00 | 0.00 | 0.00 | 88 | 1016.6 |
| 20260505180009 | 43 | 289 | 0.0 | 4.0 | 0.00 | 0.00 | 0.00 | 88 | 1016.3 |
| 20260505174605 | 42 | 56 | 0.0 | 1.0 | 0.00 | 0.00 | 0.00 | 87 | 1016.1 |
| 20260505173055 | 42 | 244 | 0.0 | 3.0 | 0.00 | 0.00 | 0.00 | 89 | 1016.0 |
| 20260505171551 | 42 | 193 | 0.0 | 1.0 | 0.00 | 0.00 | 0.00 | 90 | 1015.9 |
| 20260505170045 | 41 | 157 | 0.0 | 0.0 | 0.00 | 0.00 | 0.00 | 91 | 1016.0 |
| 20260505164541 | 38 | 38 | 0.0 | 0.0 | 0.00 | 0.00 | 0.00 | 91 | 1015.7 |
| 20260505163037 | 38 | 345 | 0.0 | 1.0 | 0.00 | 0.00 | 0.00 | 92 | 1015.6 |
| 20260505161532 | 38 | 187 | 0.0 | 1.0 | 0.00 | 0.00 | 0.00 | 93 | 1015.2 |
| 20260505153022 | 0 | 0.0 | 0.0 | 0.00 | 0.00 | 0.00 | 1015.1 | ||
| 20260505151514 | 0 | 0.0 | 0.0 | 0.00 | 0.00 | 0.00 | 1015.1 | ||
| 20260505140113 | 32 | 122 | 0.0 | 0.0 | 0.00 | 0.00 | 0.00 | 95 | 1015.2 |